Change the Weather History Date:

Friday, February 22, 2013

  Actual Average Record
Temperature  
Mean Temperature 28 °F -  
Max Temperature 32 °F 39 °F 51 °F (2000)
Min Temperature 25 °F 24 °F 5 °F (2015)
Degree Days  
Heating Degree Days 36    
Moisture  
Dew Point 28 °F    
Average Humidity 94    
Maximum Humidity 100    
Minimum Humidity 78    
Precipitation  
Precipitation 0.12 in - - ()
Sea Level Pressure  
Sea Level Pressure 29.89 in    
Wind  
Wind Speed 10 mph (SSW)    
Max Wind Speed 18 mph    
Max Gust Speed 24 mph    
Visibility 4 miles    
Events Fog , Rain , Snow    
Averages and records for this station are not official NWS values.
T = Trace of Precipitation, MM = Missing Value Source: NWS Daily Summary

Daily Weather History Graph

Daily Weather History Graph

Search for Another Location

Airport or City:

Trip Planner

Search our weather history database for the weather conditions in past years. The results will help you decide how hot, cold, wet, or windy it might be!

Date:

Astronomy

Feb. 22, 2013 Rise Set
Actual Time 6:39 AM CST 5:39 PM CST
Civil Twilight 6:11 AM CST 6:07 PM CST
Nautical Twilight 5:40 AM CST 6:38 PM CST
Astronomical Twilight 5:08 AM CST 7:10 PM CST
Moon 2:50 PM CST (2/22) 4:24 AM CST (2/22)
Length of Visible Light 11h 55m
Length of Day
11h 00m
Waxing Gibbous, 90% of the Moon is Illuminated
Feb 22
Waxing Gibbous
Feb 25
Full
Mar 4
Last Quarter
Mar 11
New
Mar 19
First Quarter

Hourly Weather History & Observations

Time (CST) Temp. Windchill Dew Point Humidity Pressure Visibility Wind Dir Wind Speed Gust Speed Precip Events Conditions
12:13 AM 28.4 °F 18.5 °F 28.4 °F 100% 29.86 in 1.8 mi ESE 11.5 mph - 0.00 in Rain Light Freezing Rain
12:56 AM 29.1 °F 20.6 °F 29.1 °F 100% 29.91 in 1.8 mi SE 9.2 mph - 0.00 in Snow Light Snow
1:38 AM 30.2 °F 21.3 °F 30.2 °F 100% 29.85 in 2.0 mi SE 10.4 mph - 0.00 in   Overcast
1:56 AM 30.0 °F 20.5 °F 30.0 °F 100% 29.89 in 2.0 mi SE 11.5 mph - 0.00 in   Overcast
2:23 AM 30.2 °F 21.3 °F 30.2 °F 100% 29.83 in 1.5 mi SE 10.4 mph - 0.00 in Snow Light Snow
2:41 AM 30.2 °F 22.6 °F 28.4 °F 93% 29.83 in 1.2 mi SE 8.1 mph - 0.00 in Snow Light Snow
2:56 AM 30.0 °F 21.1 °F 30.0 °F 100% 29.87 in 1.2 mi SE 10.4 mph - 0.00 in Snow Light Snow
3:07 AM 30.2 °F 21.3 °F 30.2 °F 100% 29.81 in 1.8 mi SE 10.4 mph - 0.00 in Snow Light Snow
3:17 AM 30.2 °F 23.4 °F 30.2 °F 100% 29.81 in 1.8 mi SE 6.9 mph - 0.00 in Snow Light Snow
3:20 AM 30.2 °F 22.6 °F 30.2 °F 100% 29.81 in 2.0 mi SE 8.1 mph - 0.00 in Snow Light Snow
3:56 AM 30.0 °F 22.4 °F 30.0 °F 100% 29.85 in 2.0 mi SE 8.1 mph - 0.00 in Snow Light Snow
4:15 AM 30.2 °F 23.4 °F 30.2 °F 100% 29.79 in 3.0 mi SE 6.9 mph - 0.00 in   Overcast
4:56 AM 30.0 °F 26.5 °F 30.0 °F 100% 29.85 in 2.0 mi SE 3.5 mph - 0.00 in Snow Light Snow
5:45 AM 30.2 °F 23.4 °F 30.2 °F 100% 29.80 in 5.0 mi SSE 6.9 mph - 0.00 in Snow Light Snow
5:56 AM 30.0 °F 23.2 °F 30.0 °F 100% 29.85 in 7.0 mi SSE 6.9 mph - 0.00 in   Overcast
6:56 AM 31.1 °F 23.1 °F 31.1 °F 100% 29.85 in 3.0 mi South 9.2 mph - N/A   Overcast
7:11 AM 30.2 °F 21.9 °F 30.2 °F 100% 29.80 in 1.5 mi South 9.2 mph - N/A   Overcast
7:19 AM 30.2 °F 22.6 °F 30.2 °F 100% 29.80 in 1.0 mi South 8.1 mph - N/A   Overcast
7:35 AM 30.2 °F 22.6 °F 30.2 °F 100% 29.80 in 0.8 mi South 8.1 mph - N/A   Overcast
7:42 AM 30.2 °F 22.6 °F 30.2 °F 100% 29.80 in 0.5 mi South 8.1 mph - N/A Fog Light Freezing Fog
7:56 AM 31.1 °F 23.7 °F 31.1 °F 100% 29.86 in 0.5 mi South 8.1 mph - N/A Fog Light Freezing Fog
8:16 AM 32.0 °F 23.6 °F 32.0 °F 100% 29.81 in 0.8 mi SSW 10.4 mph - N/A   Overcast
8:56 AM 32.0 °F 23.6 °F 32.0 °F 100% 29.88 in 1.0 mi SSW 10.4 mph - N/A   Overcast
9:05 AM 32.0 °F 24.2 °F 32.0 °F 100% 29.82 in 0.8 mi SW 9.2 mph - N/A   Overcast
9:14 AM 32.0 °F 23.6 °F 32.0 °F 100% 29.82 in 0.5 mi SW 10.4 mph - N/A Fog Fog
9:41 AM 32.0 °F 23.0 °F 32.0 °F 100% 29.83 in 0.8 mi SW 11.5 mph - N/A   Overcast
9:49 AM 32.0 °F 22.1 °F 32.0 °F 100% 29.83 in 1.2 mi SW 13.8 mph - N/A   Overcast
9:56 AM 32.0 °F 23.0 °F 32.0 °F 100% 29.89 in 1.8 mi SW 11.5 mph - N/A   Overcast
10:56 AM 32.0 °F 23.0 °F 31.1 °F 96% 29.91 in 5.0 mi WSW 11.5 mph - 0.04 in   Overcast
11:56 AM 32.0 °F 22.1 °F 31.1 °F 96% 29.92 in 2.5 mi West 13.8 mph - 0.03 in   Overcast
12:14 PM 32.0 °F 22.1 °F 30.2 °F 93% 29.86 in 1.8 mi WSW 13.8 mph - N/A   Overcast
12:56 PM 32.0 °F 23.6 °F 29.1 °F 89% 29.91 in 4.0 mi WSW 10.4 mph - 0.03 in   Overcast
1:56 PM 31.1 °F 20.5 °F 27.1 °F 85% 29.93 in 10.0 mi West 15.0 mph - 0.02 in   Overcast
2:56 PM 31.1 °F 21.4 °F 26.1 °F 82% 29.94 in 10.0 mi WSW 12.7 mph 18.4 mph N/A   Overcast
3:56 PM 30.0 °F 20.0 °F 25.2 °F 82% 29.96 in 10.0 mi WSW 12.7 mph - N/A   Overcast
4:08 PM 30.2 °F 20.2 °F 24.8 °F 80% 29.91 in 10.0 mi West 12.7 mph - N/A   Overcast
4:56 PM 29.1 °F 16.7 °F 23.0 °F 78% 29.98 in 10.0 mi West 18.4 mph 24.2 mph 0.00 in   Overcast
5:56 PM 28.0 °F 17.5 °F 23.0 °F 81% 30.00 in 10.0 mi WSW 12.7 mph - N/A   Overcast
6:56 PM 27.1 °F 15.4 °F 22.1 °F 81% 30.02 in 10.0 mi WSW 15.0 mph - N/A   Overcast
7:07 PM 26.6 °F 15.7 °F 21.2 °F 80% 29.97 in 10.0 mi WSW 12.7 mph - N/A   Overcast
7:56 PM 26.1 °F 15.6 °F 22.1 °F 85% 30.03 in 10.0 mi WSW 11.5 mph - N/A   Overcast
8:56 PM 26.1 °F 15.0 °F 22.1 °F 85% 30.04 in 10.0 mi WSW 12.7 mph - N/A   Overcast
9:56 PM 26.1 °F 15.6 °F 22.1 °F 85% 30.04 in 10.0 mi West 11.5 mph - N/A   Overcast
10:56 PM 25.2 °F 15.7 °F 22.1 °F 88% 30.04 in 10.0 mi WSW 9.2 mph - N/A   Overcast
11:56 PM 25.2 °F 13.9 °F 21.0 °F 84% 30.03 in 10.0 mi WSW 12.7 mph - N/A   Mostly Cloudy